TimeEST,TemperatureF,Dew PointF,Humidity,Sea Level PressureIn,VisibilityMPH,Wind Direction,Wind SpeedMPH,Gust SpeedMPH,PrecipitationIn,Events,Conditions,WindDirDegrees,DateUTC
12:53 AM,44.1,35.1,71,30.30,10.0,Calm,Calm,-,N/A,,Clear,0,2013-11-06 05:53:00
1:53 AM,44.1,33.1,65,30.27,10.0,Calm,Calm,-,N/A,,Clear,0,2013-11-06 06:53:00
2:53 AM,45.0,34.0,65,30.25,10.0,SE,6.9,-,N/A,,Clear,130,2013-11-06 07:53:00
3:53 AM,46.0,34.0,63,30.24,10.0,SE,6.9,-,N/A,,Clear,130,2013-11-06 08:53:00
4:53 AM,45.0,35.1,68,30.23,10.0,SE,5.8,-,N/A,,Clear,130,2013-11-06 09:53:00
5:53 AM,45.0,35.1,68,30.23,10.0,SE,6.9,-,N/A,,Clear,130,2013-11-06 10:53:00
6:53 AM,46.0,36.0,68,30.21,10.0,SSE,4.6,-,N/A,,Scattered Clouds,150,2013-11-06 11:53:00
7:53 AM,48.0,37.9,68,30.20,10.0,SE,8.1,-,N/A,,Overcast,140,2013-11-06 12:53:00
8:53 AM,53.1,41.0,64,30.19,10.0,SSE,5.8,-,N/A,,Overcast,160,2013-11-06 13:53:00
9:53 AM,59.0,43.0,55,30.16,10.0,South,5.8,-,N/A,,Overcast,170,2013-11-06 14:53:00
10:53 AM,62.1,44.1,52,30.14,10.0,Variable,4.6,-,N/A,,Mostly Cloudy,0,2013-11-06 15:53:00
11:53 AM,66.9,44.1,44,30.12,10.0,SW,6.9,-,N/A,,Mostly Cloudy,220,2013-11-06 16:53:00
12:53 PM,66.9,46.0,47,30.08,10.0,SSW,5.8,-,0.00,,Overcast,210,2013-11-06 17:53:00
1:53 PM,69.1,48.0,47,30.05,10.0,SSW,10.4,26.5,N/A,,Overcast,200,2013-11-06 18:53:00
2:53 PM,69.1,48.9,49,30.01,10.0,SW,9.2,24.2,N/A,,Overcast,220,2013-11-06 19:53:00
3:53 PM,69.1,48.9,49,29.99,10.0,South,12.7,23.0,N/A,,Mostly Cloudy,190,2013-11-06 20:53:00
4:53 PM,66.9,50.0,54,29.98,10.0,South,9.2,23.0,0.00,Rain,Light Rain,190,2013-11-06 21:53:00
5:53 PM,64.9,52.0,63,29.99,10.0,SSW,9.2,-,0.01,Rain,Light Rain,210,2013-11-06 22:53:00
6:53 PM,64.0,52.0,65,29.98,10.0,SW,5.8,-,0.00,Rain,Light Rain,230,2013-11-06 23:53:00
7:43 PM,59.0,55.4,88,30.00,3.0,WSW,5.8,-,0.02,Rain,Light Rain,250,2013-11-07 00:43:00
7:50 PM,59.0,55.4,88,29.99,1.8,WSW,3.5,-,0.04,Rain,Heavy Rain,240,2013-11-07 00:50:00
7:51 PM,59.0,55.0,87,30.00,1.8,WSW,3.5,-,0.05,Rain,Heavy Rain,240,2013-11-07 00:51:00
7:56 PM,57.2,55.4,94,29.99,2.0,Variable,3.5,-,0.01,Rain,Rain,0,2013-11-07 00:56:00
8:15 PM,59.0,55.4,88,29.99,1.5,Variable,6.9,-,0.09,Rain,Heavy Rain,0,2013-11-07 01:15:00
8:19 PM,59.0,55.4,88,29.98,2.0,South,5.8,-,0.11,Rain,Rain,170,2013-11-07 01:19:00
8:28 PM,59.0,55.4,88,29.97,7.0,SSW,8.1,-,0.14,Rain,Light Rain,210,2013-11-07 01:28:00
8:48 PM,60.8,55.4,82,29.97,10.0,Variable,5.8,-,0.17,,Overcast,0,2013-11-07 01:48:00
8:53 PM,60.1,55.9,86,29.97,10.0,Variable,6.9,-,0.17,Rain,Light Rain,0,2013-11-07 01:53:00
9:16 PM,60.8,55.4,82,29.96,10.0,WSW,8.1,-,0.01,Rain,Light Rain,240,2013-11-07 02:16:00
9:35 PM,60.8,55.4,82,29.95,10.0,SSW,4.6,-,0.01,Rain,Light Rain,200,2013-11-07 02:35:00
9:53 PM,60.1,57.0,90,29.95,10.0,SSW,4.6,-,0.01,Rain,Light Rain,200,2013-11-07 02:53:00
10:53 PM,60.1,57.0,90,29.92,3.0,SW,3.5,-,0.07,Rain,Rain,230,2013-11-07 03:53:00
11:09 PM,59.0,57.2,94,29.93,5.0,Variable,5.8,-,0.04,Rain,Rain,0,2013-11-07 04:09:00
11:37 PM,60.8,57.2,88,29.92,10.0,SW,3.5,-,0.10,Rain,Light Rain,220,2013-11-07 04:37:00
11:44 PM,59.0,57.2,94,29.91,9.0,Variable,4.6,-,0.11,Rain,Light Rain,0,2013-11-07 04:44:00
11:53 PM,59.0,57.0,93,29.91,6.0,Calm,Calm,-,0.12,Rain,Rain,0,2013-11-07 04:53:00